Regional Weather Roundup
Issued by NWS

Home | Current Version | Previous Version | Graphics & Text | Print | Product List | Glossary On
Versions: 1 2 3 4 5 6 7 8 9 10 11 12 13 14 15 16 17 18 19 20 21 22 23 24 25 26 27 28 29 30 31 32 33 34 35 36 37 38 39 40 41 42 43 44 45 46 47 48 49 50
000
ASUS43 KIND 290209
RWRIN

WEATHER ROUNDUP FOR INDIANA
NATIONAL WEATHER SERVICE INDIANAPOLIS IN
1000 PM EDT MON JUL 28 2014

NOTE: "FAIR" INDICATES FEW OR NO CLOUDS BELOW 12,000 FEET WITH NO
SIGNIFICANT WEATHER AND/OR OBSTRUCTIONS TO VISIBILITY.

* - STATION DOES NOT REPORT WEATHER SUCH AS PRECIPITATION OR FOG.

+ - STATION NOT QUALITY CONTROLLED BY THE NATIONAL WEATHER SERVICE.
    USE DATA WITH CAUTION...ESPECIALLY DEWPOINT AND RELATIVE
    HUMIDITY OBSERVATIONS.

INZ001>003-010>013-019-020-290300-
NORTHWEST INDIANA

CITY           SKY/WX    TMP DP  RH WIND       PRES   REMARKS
GARY /AIRPORT/ MOCLDY    61  54  77 CALM      30.08S
KNOX *+        CLEAR     53  46  78 N7        30.06S
LA PORTE +     CLEAR     58  47  67 N9        30.07S
MICHIGAN CITY+ MOCLDY    59  46  63 CALM      30.07S
MONTICELLO +   CLEAR     56  50  79 NW5       30.06R
RENSSELAER +   MOCLDY    57  54  88 NW3       30.08S
VALPARAISO     CLEAR     57  49  74 NW3       30.07S

$$

LMZ046-743>745-290300-
SOUTHERN LAKE MICHIGAN

STATION/POSITION TIME  TEMP WIND        PRES
                       AIR  DIR/SP/G
                 (UTC) (F)  (DEG/KT/KT) (MB)
MICHIGAN CITY    0200   63  360/ 13/ 15   N/A

$$

INZ004-005-014>016-021>024-290300-
NORTH CENTRAL INDIANA

CITY           SKY/WX    TMP DP  RH WIND       PRES   REMARKS
GOSHEN         CLEAR     54  49  83 NW7       30.05R
LOGANSPORT +   CLEAR     54  45  71 N6        30.06R
PERU/GRISSOM   CLEAR     56  50  79 NW6       30.05R
ROCHESTER +    CLEAR     55  48  76 N6        30.06R
SOUTH BEND     CLEAR     56  48  74 N9        30.06S
WARSAW +       CLEAR     54  50  87 NW5       30.05R

$$

INZ006>009-017-018-025>027-290300-
NORTHEAST INDIANA

CITY           SKY/WX    TMP DP  RH WIND       PRES   REMARKS
ANGOLA *+      CLEAR     57  52  82 NW6       30.03R
AUBURN +       CLEAR     55  50  82 W6        30.03S
FORT WAYNE     CLEAR     57  49  74 NW6       30.03R
HUNTINGTON +   CLEAR     55  49  79 NW3       30.03S

$$

INZ028-029-035-036-043>045-051>053-290300-
WEST CENTRAL INDIANA

CITY           SKY/WX    TMP DP  RH WIND       PRES   REMARKS
GREENCASTLE +  CLEAR     59  46  63 NW5       30.08R
LAFAYETTE      CLEAR     59  48  67 CALM      30.07S
TERRE HAUTE    CLEAR     60  47  61 N7        30.08S

$$

INZ030>032-037>040-046>048-054>057-064-065-290300-
CENTRAL INDIANA

CITY           SKY/WX    TMP DP  RH WIND       PRES   REMARKS
CP ATTERBURY + CLEAR     59  46  63 NW8       30.05R
COLUMBUS       CLEAR     61  48  63 NW16      30.04
INDIANAPOLIS   CLEAR     58  46  64 NW9       30.04F
-EAGLE CREEK   CLEAR     60  46  59 NW10      30.04F
KOKOMO *+      CLEAR     55  48  76 N8        30.05R
MARION +       CLEAR     55  47  73 N5        30.04S
MT COMFORT *+  CLEAR     59  52  77 NW9       30.05R
SHELBYVILLE    CLEAR     59  49  69 NW8       30.04R
ZIONSVILLE +   CLEAR     58  46  62 NW9       30.06S

$$

INZ033-034-041-042-049-050-058-059-290300-
EAST CENTRAL INDIANA

CITY           SKY/WX    TMP DP  RH WIND       PRES   REMARKS
MUNCIE         CLEAR     56  49  77 NW8       30.03R

$$

INZ060-061-067>069-081>083-085>088-290300-
SOUTHWEST INDIANA

CITY           SKY/WX    TMP DP  RH WIND       PRES   REMARKS
EVANSVILLE     CLEAR     69  54  58 NW7       30.06R
WASHINGTON +   CLOUDY    66  52  61 N18G24    30.06R

$$

INZ062-063-066-070>080-084-089>092-290300-
SOUTH CENTRAL AND SOUTHEAST INDIANA

CITY           SKY/WX    TMP DP  RH WIND       PRES   REMARKS
BLOOMINGTON    CLEAR     61  47  59 N8        30.06R
NORTH VERNON + CLEAR     61  55  82 NW5       30.04R
SEYMOUR +      CLEAR     61  39  44 NW15      30.03R

$$



USA.gov is the U.S. government's official web portal to all federal, state and local government web resources and services.